Flag for Hungary Weather past 2 weeks in Budapest, Hungary

32 °F

Passing clouds.

Feels Like: 27 °F
Forecast: 27 / 41 °F
Wind: 5 mph from Northwest

Location: Ferenc Liszt International Airport

Current Time: Nov 26, 2015 at 1:45:30 AM

Latest Report: Nov 26, 2015 at 1:00 AM

Visibility: N/A

Pressure: 29.77 "Hg

Humidity: 80%

Dew point: 27 °F

Location of BudapestLocation

Historic Weather in Budapest — Graph


Budapest temperature yesterday

Maximum temperature yesterday: 39 °F (at 12:30 PM)
Minimum temperature yesterday: 19 °F (at 7:30 AM)
Average temperature yesterday: 30 °F

Past Weeks' High & Low Weather Summary

High70 °F (Nov 18, 1:00 PM)100% (Nov 12, 1:30 AM)30.39 "Hg (Nov 12, 1:30 AM)
Low19 °F (Nov 25, 7:30 AM)36% (Nov 14, 1:00 PM)29.33 "Hg (Nov 21, 1:30 AM)
Average46 °F80%30.00 "Hg
* Reported Midnight between Nov 10 and Nov 11 — Midnight between Nov 25 and Nov 26, Budapest, Weather by CustomWeather, © 2015

Note: Actual official high and low records may vary slightly from our data, if they occured in-between our weather recording intervals... More about our weather records


Budapest weather history for previous 24 hours

Time TempWeatherWind HumidityBarometerVisibility
12:00 AM
Thu, Nov 26
32 °FPassing clouds.5 mph80%29.77 "HgN/A
11:30 PM
Wed, Nov 25
32 °FPassing clouds.7 mph80%29.77 "HgN/A
11:00 PM34 °FPassing clouds.8 mph75%29.80 "HgN/A
10:30 PM32 °FPassing clouds.5 mph80%29.80 "HgN/A
10:00 PM32 °FPassing clouds.5 mph80%29.80 "HgN/A
9:30 PM32 °FPassing clouds.6 mph80%29.80 "HgN/A
9:00 PM32 °FPassing clouds.3 mph87%29.80 "HgN/A
8:30 PM32 °FPassing clouds.5 mph87%29.80 "HgN/A
8:00 PM32 °FPassing clouds.2 mph87%29.80 "HgN/A
7:30 PM34 °FPassing clouds.2 mph75%29.83 "HgN/A
7:00 PM30 °FPassing clouds.3 mph80%29.83 "HgN/A
6:30 PM30 °FPassing clouds.5 mph80%29.83 "HgN/A
6:00 PM32 °FPassing clouds.5 mph87%29.86 "HgN/A
5:30 PM30 °FPassing clouds.2 mph86%29.86 "HgN/A
5:00 PM32 °FPassing clouds.3 mph80%29.86 "HgN/A
4:30 PM32 °FClear.6 mph80%29.86 "Hg10 mi
4:00 PM34 °FClear.3 mph70%29.86 "Hg10 mi
3:30 PM36 °FSunny.3 mph70%29.89 "Hg10 mi
3:00 PM36 °FPassing clouds.6 mph70%29.89 "HgN/A
2:30 PM37 °FPassing clouds.5 mph65%29.89 "HgN/A
2:00 PM37 °FScattered clouds.5 mph65%29.92 "HgN/A
1:30 PM39 °FScattered clouds.5 mph61%29.92 "HgN/A
1:00 PM37 °FScattered clouds.6 mph65%29.95 "HgN/A
12:30 PM39 °FPassing clouds.6 mph61%29.95 "HgN/A
12:00 PM37 °FSunny.7 mph65%29.95 "Hg10 mi
11:30 AM37 °FPassing clouds.6 mph65%29.98 "HgN/A
11:00 AM37 °FPassing clouds.7 mph65%29.98 "HgN/A
10:30 AM36 °FSunny.2 mph75%30.01 "Hg10 mi
10:00 AM34 °FSunny.3 mph81%30.01 "Hg10 mi
9:30 AM30 °FClear.3 mph86%30.01 "Hg5 mi
9:00 AM30 °FClear.1 mph80%30.01 "Hg5 mi
8:00 AM21 °FClear.2 mph93%30.01 "Hg5 mi
7:30 AM19 °FClear.2 mph86%30.04 "Hg5 mi
6:30 AM21 °FClear.No wind86%30.04 "Hg10 mi
6:00 AM23 °FClear.1 mph86%30.04 "Hg10 mi
5:00 AM21 °FClear.1 mph93%30.07 "Hg10 mi
4:30 AM21 °FClear.2 mph93%30.07 "Hg10 mi
4:00 AM21 °FClear.1 mph93%30.07 "Hg10 mi
3:30 AM21 °FClear.No wind93%30.09 "Hg10 mi
3:00 AM23 °FClear.2 mph93%30.09 "Hg10 mi
2:30 AM23 °FClear.2 mph93%30.09 "Hg10 mi
2:00 AM25 °FClear.2 mph86%30.12 "Hg10 mi
1:00 AM25 °FClear.1 mph93%30.12 "Hg10 mi
Weather by CustomWeather, © 2015

See weather overviewHow to use our weather pages